2019 Brownsburg XC Invitational Overall Results

Good Luck in your Seasons!

2019 Brownsburg Invitational

Overall Finish List

September 07, 2019


Results By RaceMaker Productions LLC


5k
Place*NameSchool Bib NoGenderTotal TimePace
1Alex FreemanBrownsburg HS4491M 15:47.985:05/M
2Jacob KodrickBrownsburg HS4502M 16:13.365:14/M
3Dalton KanePlainfield4665M 16:19.005:16/M
4Trevor NolanBrownsburg HS4510M 16:24.095:17/M
5Zach BricklerBen Davis4369M 16:26.375:18/M
6William HacklerFranklin Centra4612M 16:27.495:18/M
7Jackson AndryFranklin Centra4594M 16:30.495:19/M
8Panin SkilesBrownsburg HS4520M 16:35.575:21/M
9Yosef SolomonBen Davis4382M 16:42.385:23/M
10Justin HealeyFranklin Centra4599M 16:45.525:24/M
11Kole KelleyBrownsburg HS4498M 16:49.875:25/M
12Gannaway CJPlainfield4663M 16:55.525:27/M
13Samuel MasihFranklin Centra4604M 16:57.945:28/M
14Chris HuttoBen Davis4377M 16:58.155:28/M
15Edwin Toribio-VicenteBen Davis4375M 17:03.585:30/M
16Brayden HenkleFranklin Centra4573M 17:05.205:31/M
17Kace RhoadesBen Davis4381M 17:06.385:31/M
18Nicholas HuttFranklin Centra4600M 17:09.795:32/M
19Jacob AbshireFranklin Centra4593M 17:10.575:32/M
20Schmidt HaydenPlainfield4671M 17:14.415:34/M
21Nolan ReuilleFranklin Centra4590M 17:14.965:34/M
22Max YoungFranklin Centra4608M 17:20.215:35/M
23Joseph ConeyFranklin Centra4597M 17:22.325:36/M
24Ernest MomoduBen Davis4380M 17:25.635:37/M
25McClure CadenPlainfield4668M 17:26.585:37/M
26Brett HeckmanBrownsburg HS4495M 17:27.825:38/M
27Smith ColePlainfield4672M 17:29.905:38/M
28Jaden SeymourPark Tudor4625M 17:31.055:39/M
29Zachary CappsFranklin Centra4596M 17:33.855:40/M
30Adin RademacherBrownsburg HS4516M 17:35.025:40/M
31Chris GomezSpeedway4705M 17:37.485:41/M
32Matt BrayBen Davis4385M 17:39.215:42/M
33Spencer McKinneyFranklin Centra4606M 17:40.405:42/M
34Quinton WeflenFranklin Centra4577M 17:40.925:42/M
35Donahue LiamPlainfield4661M 17:41.355:42/M
36Jack GugleFranklin Centra4611M 17:47.855:44/M
37Tyler SpietelBen Davis4374M 17:52.055:46/M
38Mael BrouwerBrownsburg HS4487M 17:52.305:46/M
39Zachary HuffNorth Putnam4731M 17:54.465:46/M
40Dayton McIntireFranklin Centra4605M 17:56.325:47/M
41Grant TemplinFranklin Centra4614M 17:57.665:47/M
42Jonah DeckerFranklin Centra4580M 17:57.675:47/M
43Nehring EmersonPlainfield4669M 18:01.165:49/M
44Josh HamiltonBrownsburg HS4494M 18:03.135:49/M
45Caleb PangFranklin Centra4607M 18:05.045:50/M
46Andrew MoodieBrownsburg HS4509M 18:07.955:51/M
47Patrick VoglewedeBrownsburg HS4524M 18:09.095:51/M
48Victor Alex CuevasBen Davis4401M 18:15.265:53/M
49Elijah GrantBrownsburg HS4492M 18:16.285:54/M
50Jadon LealFranklin Centra4602M 18:19.145:55/M
51Zach LienBrownsburg HS4504M 18:24.025:56/M
52Caedmon OligerBrownsburg HS4511M 18:25.065:56/M
53Ellis LyonsNorth Putnam4732M 18:25.495:56/M
54Brayden MonnettNorth Putnam4735M 18:27.805:57/M
55Lucas CummingsFranklin Centra4610M 18:31.915:58/M
56Stafan AllenPlainfield4659M 18:37.636:00/M
57Caeden RamseyBrownsburg HS4515M 18:38.676:01/M
58Freddie HoskinsPark Tudor4632M 18:38.996:01/M
59Jeremy BradleyFranklin Centra4578M 18:40.606:01/M
60Vandewalle FinnPlainfield4674M 18:46.716:03/M
61Caedmon BarksdaleBrownsburg HS4486M 18:49.616:04/M
62Eldon JacksonFranklin Centra4584M 18:50.226:05/M
63Garrett KiddFranklin Centra4585M 18:50.656:05/M
64Owen CoxFranklin Centra4598M 18:50.866:05/M
65Tony PerezClinton Prairie4528M 18:52.326:05/M
66Lamb HenryPlainfield4666M 18:52.646:05/M
67Will KnitterPark Tudor4627M 18:53.896:05/M
68Daniel MuhkinPark Tudor4626M 18:54.936:06/M
69Owen LawrenceFranklin Centra4575M 18:55.906:06/M
70Kaleb KeedyFranklin Centra4601M 18:56.556:06/M
71Aidan WilliamsFranklin Centra4592M 18:57.566:07/M
72Shamarke AliBen Davis4384M 18:59.686:07/M
73Varun ChhedaPark Tudor4631M 19:04.476:09/M
74Brent RogersFranklin Centra4591M 19:07.466:10/M
75Josh RenziBrownsburg HS4517M 19:08.506:10/M
76Nathan BrowerFranklin Centra4579M 19:08.766:10/M
77Evan LohmanFranklin Centra4603M 19:10.936:11/M
78Logan BarrettClinton Prairie4526M 19:11.286:11/M
79Devin IsaacSpeedway4707M 19:12.366:12/M
80Alec VoelkelPark Tudor4628M 19:16.296:13/M
81Ben CornetteBrownsburg HS4490M 19:18.316:14/M
82Jalen LarkeyBrownsburg HS4503M 19:19.846:14/M
83Owen LackeyFranklin Centra4574M 19:20.076:14/M
84Karsten LindstromPark Tudor4629M 19:20.916:14/M
85Brody CookeClinton Prairie4527M 19:25.196:16/M
86Ethan KimPark Tudor4630M 19:25.476:16/M
87Joshua GugleFranklin Centra4582M 19:30.206:17/M
88Ben CarpenterPark Tudor4633M 19:31.626:18/M
89Ryan McCannFranklin Centra4586M 19:37.946:20/M
90Daniel CorbinFranklin Centra4566M 19:39.856:20/M
91Alexander BrettnacherClinton Prairie4532M 19:39.976:20/M
92Jaxon CurtisFranklin Centra4568M 19:40.196:21/M
93Bernie PiotrowskiBen Davis4372M 19:40.776:21/M
94Chris MatiasClinton Prairie4530M 19:42.406:21/M
95Seth HendersonFranklin Centra4583M 19:43.236:22/M
96AJ DortonSpeedway4704M 19:44.146:22/M
97Alex ForeyFranklin Centra4571M 19:44.286:22/M
98David LashbrookClinton Prairie4533M 19:44.776:22/M
99Dillon EdwardsBen Davis4402M 19:46.536:23/M
100Alexander ParkhurstFranklin Centra4589M 19:47.476:23/M
Place*NameSchool Bib NoGenderTotal TimePace
101Connor WebbBrownsburg HS4525M 19:48.656:23/M
102Christian BerrySpeedway4703M 19:48.886:23/M
103Yeabsra BeleteBen Davis4368M 19:51.696:24/M
104Logan TroutBrownsburg HS4521M 19:57.106:26/M
105Ethan HuntemanSpeedway4706M 19:58.376:26/M
106Wes WhitlockClinton Prairie4529M 19:59.996:27/M
107Tyler AlticClinton Prairie4535M 20:01.056:27/M
108Abdul KhanBrownsburg HS4499M 20:01.136:27/M
109Carter BricklerBen Davis4376M 20:02.136:28/M
110Robert CoykendallFranklin Centra4567M 20:05.236:29/M
111Steve McClarenClinton Prarie4738M 20:07.766:29/M
112Braden MartinClinton Prairie4531M 20:08.856:30/M
113Sam MagnaboscoSpeedway4708M 20:12.286:31/M
114Daniel CamachoBen Davis4398M 20:14.016:32/M
115Ean PackardBrownsburg HS4512M 20:15.826:32/M
116Maxwell LindseyBen Davis4379M 20:16.906:32/M
117Jerome CoeBen Davis4399M 20:21.846:34/M
118Isaac MartinBrownsburg HS4506M 20:23.336:35/M
119Jonathan ReidFranklin Centra4576M 20:30.376:37/M
120Corie StancombeNorth Putnam4736M 20:32.976:37/M
121Rex BurkmanPark Tudor4634M 20:33.056:38/M
122Jacob BickelFranklin Centra4595M 20:35.666:38/M
123Williams TurnerPlainfield4676M 20:35.736:38/M
124Spencer HowardBrownsburg HS4496M 20:43.486:41/M
125Alex ChavarriaBrownsburg HS4489M 20:53.686:44/M
126Sylas WyattBen Davis4410M 20:55.676:45/M
127Christopher ReichelFranklin Centra4613M 20:57.566:45/M
128Nicholas HensleyNorth Putnam4730M 21:00.766:46/M
129Holsapple RyanPlainfield4664M 21:10.176:50/M
130Tristan KrizanBrownsburg HS4500M 21:14.816:51/M
131Joseph KujoreBen Davis4378M 21:16.716:52/M
132Jonah HillmanPark Tudor4635M 21:19.946:53/M
133Cole GehringBethesda4449M 21:21.456:53/M
134Neven ChasteenClinton Prairie4536M 21:22.006:54/M
135Troy DavisFranklin Centra4569M 21:35.936:58/M
136Xavier PolandBen Davis4409M 21:38.546:59/M
137Griffin HaysBethesda4450M 21:47.617:02/M
138Fossmeyer ZachPlainfield4662M 21:48.517:02/M
139Weston TweddellBrownsburg HS4522M 21:49.807:02/M
140Christopher ElliottFranklin Centra4570M 21:51.067:03/M
141Christian EilenstineCJ4389M 21:52.167:03/M
142Andrece BusseyBen Davis4396M 22:01.317:06/M
143Matthew McHargueNorth Putnam4733M 22:04.177:07/M
144Montez PerryBen Davis4408M 22:05.387:07/M
145Mason ClarkFranklin Centra4609M 22:13.317:10/M
146Colton MayfieldBrownsburg HS4508M 22:15.067:11/M
147Charles JelksTindley4718M 22:18.337:12/M
148Aaron PrellerBrownsburg HS4514M 22:18.717:12/M
149Owen HammondFranklin Centra4572M 22:26.577:14/M
150Nolan McDanielFranklin Centra4587M 22:30.367:15/M
151Jai ClaxonBen Davis4387M 22:30.877:15/M
152Josh HinkleBen Davis4404M 22:36.167:17/M
153William CoffmanFranklin Centra4565M 22:37.167:18/M
154Beck ChandlerPark Tudor4636M 22:55.867:24/M
155Jared TetreaultFranklin Centra4615M 23:00.637:25/M
156Bradley McCleereyBen Davis4405M 23:02.167:26/M
157Walker GollapudiPark Tudor4637M 23:04.947:26/M
158Reed KleisBrownsburg HS4501M 23:05.667:27/M
159Betuel PazBen Davis4407M 23:23.137:33/M
160Grant Van WinkleBrownsburg HS4523M 23:24.027:33/M
161Isaac ElliottBethesda4451M 23:25.247:33/M
162Ethan ObryanBethesda4452M 23:41.187:38/M
163Isaac FadeyiBen Davis4370M 23:52.817:42/M
164Donald AlexanderBen Davis4383M 24:02.677:45/M
165James ChapmanBen Davis4386M 24:08.407:47/M
166Austin BeckClinton Prairie4534M 24:11.537:48/M
167Noah LoneBrownsburg HS4505M 24:13.947:49/M
168Charles QuilliamBen Davis4392M 24:18.097:50/M
169Benjamin SkilesBrownsburg HS4519M 24:20.207:51/M
170Will SearsBrownsburg HS4518M 24:26.617:53/M
171William MaxwellBrownsburg HS4507M 24:30.897:54/M
172Robert MessickFranklin Centra4588M 25:00.358:04/M
173Michael FrazierNorth Putnam4734M 25:04.208:05/M
174Constans TylerPlainfield4660M 25:48.568:19/M
175Paul HamannBrownsburg HS4493M 26:03.388:24/M
176Antoine Cooper Jr.Ben Davis4388M 26:06.798:25/M
177Trevor SullivanPark Tudor4638M 26:10.488:26/M
178Benjamin PittsBrownsburg HS4513M 26:30.878:33/M
179Juan HavvardBen Davis4403M 1:35:54.7930:56/M
180Lukas SpencerNorth Putnam4726M 2:01:47.9539:17/M
181Jacob FarringtonNorth Putnam4729M 2:01:49.3939:18/M

*Overall place within gender


5k
Place*NameSchool Bib NoGenderTotal TimePace
1Brooke DixonBrownsburg4464F 18:32.005:59/M
2Sophia KennedyPark Tudor4640F 18:53.006:05/M
3Brianna LawsonFranklin Centra4559F 19:00.006:08/M
4Audrey ComastriFranklin Centra4562F 19:43.326:22/M
5Cami FarmerFranklin Centra4553F 19:44.096:22/M
6Sanchez AnastasiaPlainfield4697F 19:46.686:23/M
7Kiley Van NessBrownsburg4482F 20:17.746:33/M
8Gretchen FarleyPark Tudor4641F 20:20.826:34/M
9Brielle VailPark Tudor4642F 20:23.216:35/M
10VanBibber MackenziePlainfield4701F 20:25.896:35/M
11Emma CougillBrownsburg4463F 20:37.696:39/M
12Dockery AddisonPlainfield4682F 20:42.956:41/M
13Sophie BrittonBrownsburg4461F 20:43.466:41/M
14Isabella MaihoferBrownsburg4473F 20:56.246:45/M
15Alivia GustrowskyBrownsburg4467F 20:57.506:45/M
16Melody TolleyClinton Prairie4538F 21:00.396:46/M
17Eva AltschulBrownsburg4456F 21:05.256:48/M
18Olivia LimbilBrownsburg4472F 21:12.766:50/M
19Sydney ParpartBrownsburg4477F 21:17.566:52/M
20Alicia AholmePark Tudor4643F 21:23.756:54/M
21Hargrave VeronicaPlainfield4690F 21:30.846:56/M
22Hayden SamanthaPlainfield4691F 21:35.226:58/M
23Carly AltierBrownsburg4455F 21:43.297:00/M
24Grace ElmoreNorth Putnam4619F 21:47.177:02/M
25Toren HartogBen Davis4429F 22:03.587:07/M
26Aneicea KingBen Davis4432F 22:08.887:08/M
27Anya HardwickFranklin Centra4563F 22:11.717:09/M
28Evans BrynnPlainfield4684F 22:12.367:10/M
29Rebekah LloydClinton Prairie4537F 22:17.047:11/M
30Amber JudyBen Davis4431F 22:23.017:13/M
31Mehringer RileyPlainfield4694F 22:24.927:14/M
32Ella RockBrownsburg4478F 22:34.807:17/M
33Elise HartsellBrownsburg4468F 22:38.277:18/M
34Emily BakerBrownsburg4459F 22:40.537:19/M
35Julia WilsonFranklin Centra4555F 22:42.827:19/M
36Alexis RuizBen Davis4444F 23:03.507:26/M
37Grace HuntemanSpeedway4716F 23:06.717:27/M
38Smith ArayaPlainfield4698F 23:08.897:28/M
39Hannah PelletierePark Tudor4644F 23:11.467:29/M
40Fenley LydiaPlainfield4686F 23:13.727:29/M
41Price SarahPlainfield4695F 23:15.647:30/M
42Dakota SciscoePark Tudor4647F 23:23.157:33/M
43Gretchen BetzPark Tudor4645F 23:23.607:33/M
44Maya RoweBrownsburg4479F 23:24.647:33/M
45Evelyn WickettBrownsburg4485F 23:27.477:34/M
46McKenzie SharpBen Davis4447F 23:37.017:37/M
47Reese LanghorneBrownsburg4471F 23:56.537:43/M
48Kailyn TrautBrownsburg4481F 23:57.187:44/M
49Tristyn Berube, Tristyn N.Ben Davis4418F 24:04.327:46/M
50Marion DavisSpeedway4713F 24:20.617:51/M
51Lillyan BarkerPlainfield4677F 24:27.897:53/M
52Emma McDivittBrownsburg4474F 24:30.647:54/M
53Zoe BeardClinton Prairie4540F 24:36.387:56/M
54Anna JacobsonBrownsburg4470F 24:44.247:59/M
55Katie FryNorth Putnam4620F 24:53.128:02/M
56Haven PapineauBen Davis4439F 24:57.668:03/M
57Grace KinkeadNorth Putnam4621F 24:58.328:03/M
58Snit WeldeBrownsburg4484F 25:04.048:05/M
59Gianni Dal CorobboSpeedway4712F 25:05.288:05/M
60Emma DeVaultSpeedway4714F 25:08.828:06/M
61Annie EsterlineBrownsburg4466F 25:10.468:07/M
62Taylor HensleyNorth Putnam4616F 25:12.238:08/M
63Sophia LotzowNorth Putnam4622F 25:13.248:08/M
64Anna BucknerPlainfield4679F 25:15.708:09/M
65Hess MahalaPlainfield4692F 25:18.548:10/M
66Solenn VincentBrownsburg4483F 25:27.998:13/M
67Rosa MuelFranklin Centra4557F 25:29.048:13/M
68Ainsley TierneyFranklin Centra4547F 25:34.538:15/M
69Ashlyn WoodburnFranklin Centra4548F 25:38.498:16/M
70Hock AlyssaPlainfield4693F 25:40.268:17/M
71Maggie HaywardPark Tudor4649F 25:48.778:19/M
72Zoey BishopSpeedway4710F 25:51.248:20/M
73Alaina ChewNorth Putnam4623F 25:56.868:22/M
74Sydney BrownBen Davis4419F 25:57.988:22/M
75Dennise MestasBen Davis4433F 26:05.968:25/M
76Diana Garcia GonzalezBen Davis4423F 26:08.038:26/M
77Chloe DivensPark Tudor4651F 26:08.238:26/M
78Isabel AndersonBrownsburg4458F 26:17.408:29/M
79Eliana ColemanBen Davis4420F 26:24.838:31/M
80Sophia BarksdaleBrownsburg4460F 26:35.838:35/M
81Molly WardClinton Prairie4543F 26:39.188:36/M
82Portia RuhlBethesda4454F 26:41.628:36/M
83Francis Reyes EspinozaBen Davis4443F 26:49.178:39/M
84Bella HernandezFranklin Centra4551F 26:55.198:41/M
85Kaiah FentersSpeedway4715F 27:03.858:44/M
86Brooke AllisonSpeedway4709F 27:10.028:46/M
87Smith ElloryPlainfield4699F 27:19.148:49/M
88Eve AddisonPlainfield4685F 27:23.088:50/M
89Catherine BlantonBrownsburg4737F 27:23.858:50/M
90Josie LyonsNorth Putnam4617F 27:46.098:57/M
91Bella CreasyClinton Prairie4539F 27:46.528:57/M
92Ana GomoraBethesda4453F 28:12.169:06/M
93Brittney ReisingerBen Davis4442F 28:31.579:12/M
94Savannah Grigsbynorth Putnam4624F 29:00.209:21/M
95Kayla CraigBen Davis4421F 29:00.429:21/M
96Grace MillerBrownsburg4475F 29:11.099:25/M
97Madison MortimerBen Davis4434F 29:14.389:26/M
98Karla GuerraBen Davis4428F 29:36.569:33/M
99Arlinn OrtegaBen Davis4437F 30:05.409:42/M
100Morgann HartFranklin Centra4561F 30:10.499:44/M
Place*NameSchool Bib NoGenderTotal TimePace
101Mahlet GebremeskelBen Davis4426F 31:23.3610:07/M
102Marodejaa SandersTindley4721F 31:30.2110:10/M
103Diana AguileraBen Davis4411F 31:48.7810:15/M
104Leah McDanielClinton Prairie4541F 32:17.3410:25/M
105Foley RachelPlainfield4688F 33:02.4410:39/M
106Krystal FlorezBen Davis4422F 34:13.4711:02/M
107Mary SimonsonSpeedway4717F 34:18.5711:04/M
108Brittany Barradas-FernandezBen Davis4416F 34:35.2711:09/M
109Nadia OsccorimaBen Davis4438F 34:51.5611:15/M
110Emily FisherPark Tudor4658F 35:05.0711:19/M
111Melissa Barradas-FernandezBen Davis4417F 35:11.8711:21/M
112Kiara HodgeBen Davis4430F 35:11.8911:21/M
113Liliana GarciaBen Davis4424F 35:27.8411:26/M
114Foley KaitlinPlainfield4687F 40:30.4013:04/M
115Hannah TippetsBrownsburg4480F 58:27.0718:51/M
116Karagan EdmondsBrownsburg4465F 58:59.4619:02/M
117Mira CesnikBrownsburg4462F 59:03.4819:03/M
118Olivia BickelFranklin Centra4564F 59:15.2719:07/M
119Viviana AllenBen Davis4412F 1:14:58.6924:11/M

*Overall place within gender


Upcoming Races